Flag for Belgium Weather past 2 weeks in Eupen, Belgium

Now
57 °F

Clear.


Feels Like: N/A
Forecast: 57 / 75 °F
Wind: N/A

Location: Spa / La Sauveniere

Current Time: Jul 26, 2014 at 5:37:40 AM

Latest Report: Jul 26, 2014 at 4:00 AM


Visibility: 3 mi

Pressure: 29.94 "Hg

Humidity: 95%

Dew point: 55 °F

Location of EupenLocation

Historic Weather in Eupen — Graph

°F

Eupen temperature yesterday

Maximum temperature yesterday: 69 °F (at 3:00 PM)
Minimum temperature yesterday: 57 °F (at 11:00 PM)
Average temperature yesterday: 63 °F

Past Weeks' High & Low Weather Summary

 TemperatureHumidityPressure
High87 °F (Jul 18, 6:00 PM)100% (Jul 11, 5:00 AM)30.22 "Hg (Jul 11, 5:00 AM)
Low52 °F (Jul 15, 3:00 AM)32% (Jul 18, 4:00 PM)29.76 "Hg (Jul 13, 6:00 PM)
Average66 °F76%29.99 "Hg
* Reported Jul 11 4:00 AM — Jul 26 4:00 AM, Eupen, Weather by CustomWeather, © 2014

Note: Actual official high and low records may vary slightly from our data, if they occured in-between our weather recording intervals... More about our weather records

Advertising

Eupen weather history for previous 24 hours

 ConditionsComfort  
Time TempWeatherWind HumidityBarometerVisibility
4:00 AM
Jul 26
57 °FClear.N/A95%29.94 "Hg2 mi
3:00 AM56 °FPassing clouds.1 mph100%29.96 "Hg0 mi
2:00 AM58 °FPassing clouds.1 mph98%29.96 "Hg1 mi
1:00 AM57 °FFog.No wind96%29.96 "Hg2 mi
12:00 AM57 °FFog.1 mph97%29.96 "Hg3 mi
11:00 PM
Jul 25
57 °FClear.1 mph94%29.96 "HgN/A
10:00 PM58 °FClear.1 mph95%29.94 "HgN/A
9:00 PM60 °FFog.1 mph98%29.93 "Hg2 mi
8:00 PM62 °FLight rain. Sunny.1 mph96%29.93 "Hg6 mi
7:00 PM62 °FLight rain. Sunny.1 mph96%29.93 "Hg6 mi
6:00 PM63 °FPassing clouds.1 mph93%29.92 "Hg10 mi
5:00 PM66 °FPartly sunny.1 mph71%29.92 "Hg19 mi
4:00 PM67 °FScattered clouds.3 mph70%29.93 "Hg14 mi
3:00 PM69 °FSunny.6 mph65%29.91 "Hg16 mi
2:00 PM67 °FOvercast.5 mph68%29.93 "Hg19 mi
1:00 PM68 °FOvercast.3 mph71%29.93 "Hg19 mi
12:00 PM67 °FPassing clouds.3 mph74%29.94 "Hg22 mi
11:00 AM67 °FPartly sunny.3 mph70%29.95 "Hg19 mi
10:00 AM66 °FSunny.2 mph72%29.95 "Hg25 mi
9:00 AM62 °FSunny.2 mph81%29.96 "Hg19 mi
8:00 AM59 °FSunny.1 mph85%29.97 "Hg22 mi
7:00 AM60 °FScattered clouds.2 mph85%29.96 "Hg22 mi
6:00 AM58 °FOvercast.N/A84%29.97 "Hg25 mi
5:00 AM60 °FClear.2 mph79%29.96 "Hg28 mi
Weather by CustomWeather, © 2014

See weather overviewHow to use our weather pages